period_start,C,m1,H,J0,J1,J2,J3,J4,J5,JA,JB,JC,JD,JJ,JK,JN,#
2015-08-01 00:00:50,-0.01,0.02,0.00,23.85,27.45,29.83,4.77,25.85,1021.03,2039.14,3416.01,3266.31,3564.18,349.50,347.75,3.49,0000 0000 0000 0000 000000
2015-08-01 00:05:51,-0.00,0.02,0.00,23.85,27.45,29.84,4.87,26.02,1021.02,2039.06,3416.01,3266.17,3564.08,350.44,348.60,3.52,0000 0000 0000 0000 000000
2015-08-01 00:10:52,0.01,0.02,0.00,23.87,27.45,29.83,4.70,25.87,1021.01,2039.10,3416.00,3266.18,3564.08,349.13,347.47,3.55,0000 0000 0000 0000 000000
2015-08-01 00:15:53,-0.00,0.02,0.00,23.87,27.45,29.83,4.77,25.88,1021.01,2039.08,3416.00,3266.09,3564.04,350.03,348.31,3.58,0000 0000 0000 0000 000000
2015-08-01 00:20:54,-0.00,0.02,0.00,23.86,27.45,29.82,4.75,25.81,1021.01,2039.05,3416.00,3266.03,3564.01,350.50,348.48,3.61,0000 0000 0000 0000 000000
2015-08-01 00:25:56,0.01,0.02,0.00,23.86,27.45,29.82,4.80,25.84,1021.01,2039.10,3416.00,3266.02,3564.01,350.66,348.62,3.64,0000 0000 0000 0000 000000
2015-08-01 00:30:57,-0.00,0.02,0.00,23.85,27.45,29.82,4.73,25.88,1020.95,2039.08,3415.98,3266.02,3564.01,349.21,347.33,3.67,0000 0000 0000 0000 000000
2015-08-01 00:35:58,0.01,0.02,0.00,23.86,27.45,29.84,4.78,25.83,1020.92,2039.12,3415.98,3266.02,3564.00,350.33,348.40,3.70,0000 0000 0000 0000 000000
2015-08-01 00:40:59,-0.00,0.02,0.00,23.87,27.45,29.83,4.75,25.81,1020.73,2039.09,3415.96,3266.00,3564.00,349.84,347.60,3.73,0000 0000 0000 0000 000000
2015-08-01 00:46:01,0.01,0.02,0.00,23.87,27.45,29.82,4.75,25.79,1020.59,2039.15,3415.97,3266.01,3564.00,350.07,347.97,3.76,0000 0000 0000 0000 000000
2015-08-01 00:51:01,0.00,0.02,0.00,23.87,27.45,29.84,4.77,25.81,1020.60,2039.19,3415.81,3266.00,3564.00,349.99,348.25,3.79,0000 0000 0000 0000 000000
2015-08-01 00:56:02,0.02,0.02,0.00,23.87,27.45,29.83,4.79,25.78,1020.64,2039.20,3415.74,3266.00,3564.00,349.84,347.99,3.81,0000 0000 0000 0000 000000
2015-08-01 01:01:04,0.01,0.02,0.00,23.88,27.45,29.83,4.76,25.86,1020.60,2039.23,3415.42,3266.00,3563.99,349.87,347.95,3.84,0000 0000 0000 0000 000000
2015-08-01 01:06:05,-0.00,0.02,0.00,23.89,27.45,29.82,4.76,25.82,1020.56,2039.14,3415.03,3265.99,3563.96,350.02,347.97,3.87,0000 0000 0000 0000 000000
2015-08-01 01:11:06,0.01,0.02,0.00,23.90,27.45,29.83,4.70,25.76,1020.54,2039.30,3415.05,3265.99,3563.97,349.84,347.85,3.90,0000 0000 0000 0000 000000
2015-08-01 01:16:08,0.01,0.02,0.00,23.91,27.45,29.84,4.81,25.88,1020.55,2039.24,3415.01,3265.99,3563.96,350.15,348.05,3.93,0000 0000 0000 0000 000000
2015-08-01 01:21:09,0.01,0.02,0.00,23.92,27.45,29.83,4.76,26.05,1020.55,2039.35,3415.01,3265.98,3563.92,350.37,348.44,3.96,0000 0000 0000 0000 000000
2015-08-01 01:26:10,0.00,0.02,0.00,23.92,27.45,29.84,4.78,25.99,1020.55,2039.22,3415.00,3265.96,3563.64,350.13,348.19,3.99,0000 0000 0000 0000 000000
2015-08-01 01:31:12,0.03,0.02,0.00,23.92,27.45,29.82,4.83,25.95,1020.55,2039.18,3414.87,3265.48,3563.05,350.23,348.26,4.02,0000 0000 0000 0000 000000
2015-08-01 01:36:13,0.02,0.02,0.00,23.90,27.45,29.85,4.87,25.93,1020.56,2039.21,3414.56,3265.25,3563.01,350.67,348.66,4.05,0000 0000 0000 0000 000000
2015-08-01 01:41:14,0.01,0.02,0.00,23.91,27.45,29.83,4.67,25.74,1020.54,2039.22,3414.29,3265.12,3563.01,349.63,347.73,4.08,0000 0000 0000 0000 000000
2015-08-01 01:46:15,-0.02,0.02,0.00,23.91,27.45,29.83,4.86,25.86,1020.55,2039.09,3414.03,3265.02,3562.99,350.64,348.69,4.11,0000 0000 0000 0000 000000
2015-08-01 01:51:16,0.00,0.02,0.00,23.92,27.46,29.83,4.73,25.78,1020.54,2039.05,3414.00,3265.00,3562.96,349.73,347.72,4.14,0000 0000 0000 0000 000000
2015-08-01 01:56:18,0.00,0.02,0.00,23.92,27.47,29.84,4.82,25.75,1020.53,2039.07,3414.00,3265.00,3562.91,350.05,347.71,4.17,0000 0000 0000 0000 000000
2015-08-01 02:01:19,0.00,0.02,0.00,23.93,27.47,29.83,4.76,25.79,1020.53,2039.04,3413.90,3264.99,3562.55,350.28,348.30,4.20,0000 0000 0000 0000 000000
2015-08-01 02:06:20,0.03,0.02,0.00,23.93,27.47,29.85,4.77,25.86,1020.52,2039.03,3413.24,3264.92,3562.10,350.10,347.89,4.23,0000 0000 0000 0000 000000
2015-08-01 02:11:21,0.01,0.02,0.00,23.93,27.47,29.85,4.80,25.73,1020.52,2039.06,3413.03,3264.90,3562.02,350.17,348.16,4.25,0000 0000 0000 0000 000000
2015-08-01 02:16:21,0.01,0.02,0.00,23.94,27.47,29.85,4.84,25.77,1020.52,2039.06,3413.00,3264.70,3562.00,350.89,348.72,4.28,0000 0000 0000 0000 000000
2015-08-01 02:21:22,0.02,0.02,0.00,23.95,27.47,29.85,4.72,25.69,1020.52,2039.07,3413.00,3264.43,3562.00,350.13,348.08,4.31,0000 0000 0000 0000 000000
2015-08-01 02:26:24,0.00,0.02,0.00,23.95,27.47,29.86,4.77,25.80,1020.52,2039.04,3412.99,3264.08,3561.99,349.96,348.08,4.34,0000 0000 0000 0000 000000
2015-08-01 02:31:25,0.01,0.02,0.00,23.95,27.47,29.85,4.60,25.70,1020.52,2039.02,3412.69,3264.00,3561.94,349.63,347.61,4.37,0000 0000 0000 0000 000000
2015-08-01 02:36:26,0.02,0.02,0.00,23.95,27.47,29.84,4.69,25.73,1020.52,2039.08,3412.44,3264.01,3561.93,349.57,347.52,4.40,0000 0000 0000 0000 000000
2015-08-01 02:41:27,0.02,0.02,0.00,23.96,27.48,29.84,4.72,25.77,1020.52,2039.09,3412.09,3264.00,3561.77,350.20,347.98,4.43,0000 0000 0000 0000 000000
2015-08-01 02:46:29,0.00,0.02,0.00,23.95,27.49,29.85,4.74,25.79,1020.52,2039.10,3412.01,3264.00,3561.50,349.80,347.68,4.46,0000 0000 0000 0000 000000
2015-08-01 02:51:30,0.00,0.02,0.00,23.96,27.50,29.84,4.79,25.82,1020.52,2039.05,3412.00,3263.99,3561.07,350.35,348.30,4.49,0000 0000 0000 0000 000000
2015-08-01 02:56:31,0.01,0.02,0.00,23.97,27.50,29.85,4.67,25.71,1020.51,2039.09,3411.99,3263.99,3561.02,349.01,347.08,4.52,0000 0000 0000 0000 000000
2015-08-01 03:01:32,-0.00,0.02,0.00,23.97,27.50,29.85,4.72,25.80,1020.50,2039.05,3411.88,3263.94,3561.00,350.33,348.21,4.55,0000 0000 0000 0000 000000
2015-08-01 03:06:33,-0.00,0.02,0.00,23.98,27.50,29.86,4.75,25.82,1020.46,2039.03,3411.57,3263.81,3560.99,350.19,348.02,4.58,0000 0000 0000 0000 000000
2015-08-01 03:11:34,0.03,0.02,0.00,23.97,27.50,29.86,4.79,25.71,1020.36,2039.04,3411.30,3263.54,3560.98,350.04,347.86,4.61,0000 0000 0000 0000 000000
2015-08-01 03:16:35,0.01,0.03,0.00,23.98,27.50,29.87,4.72,25.68,1020.17,2039.01,3411.06,3263.19,3560.97,349.68,347.47,4.63,0000 0000 0000 0000 000000
2015-08-01 03:21:37,0.00,0.03,0.00,23.99,27.50,29.87,4.79,25.73,1020.07,2039.03,3411.00,3263.07,3560.91,349.72,347.44,4.66,0000 0000 0000 0000 000000
2015-08-01 03:26:38,0.01,0.03,0.00,23.99,27.50,29.87,4.87,25.76,1020.06,2039.03,3410.99,3263.02,3560.52,350.41,348.10,4.69,0000 0000 0000 0000 000000
2015-08-01 03:31:39,0.00,0.03,0.00,24.00,27.51,29.87,4.76,25.76,1020.05,2039.03,3410.99,3263.01,3560.20,349.86,347.58,4.72,0000 0000 0000 0000 000000
2015-08-01 03:36:40,0.00,0.03,0.00,24.01,27.52,29.89,4.72,25.71,1020.04,2039.01,3410.73,3263.00,3560.02,350.01,347.86,4.75,0000 0000 0000 0000 000000
2015-08-01 03:41:41,0.01,0.03,0.00,24.02,27.52,29.87,4.75,25.78,1020.04,2039.00,3410.15,3263.00,3560.00,350.34,348.07,4.78,0000 0000 0000 0000 000000
2015-08-01 03:46:43,0.00,0.03,0.00,24.02,27.52,29.88,4.73,25.76,1020.03,2039.01,3410.02,3262.99,3560.00,350.36,348.00,4.81,0000 0000 0000 0000 000000
2015-08-01 03:51:44,-0.00,0.03,0.00,24.02,27.52,29.88,4.68,25.76,1020.03,2039.00,3410.00,3262.97,3559.98,349.65,347.31,4.84,0000 0000 0000 0000 000000
2015-08-01 03:56:45,0.01,0.03,0.00,24.03,27.52,29.88,4.63,25.81,1019.99,2039.00,3410.00,3262.86,3559.92,350.00,347.82,4.87,0000 0000 0000 0000 000000
2015-08-01 04:01:46,-0.00,0.03,0.00,24.03,27.52,29.90,4.80,25.93,1019.84,2039.00,3409.98,3262.75,3559.86,350.13,347.67,4.90,0000 0000 0000 0000 000000
2015-08-01 04:06:47,0.01,0.03,0.00,24.05,27.53,29.90,4.79,25.90,1019.82,2039.00,3409.95,3262.52,3559.69,349.85,347.55,4.93,0000 0000 0000 0000 000000
2015-08-01 04:11:49,0.02,0.03,0.00,24.05,27.54,29.90,4.74,25.82,1019.76,2039.00,3409.88,3262.30,3559.38,350.20,347.60,4.96,0000 0000 0000 0000 000000
2015-08-01 04:16:50,0.02,0.03,0.00,24.05,27.55,29.90,4.63,25.81,1019.71,2039.00,3409.49,3262.11,3559.18,349.42,347.07,4.99,0000 0000 0000 0000 000000
2015-08-01 04:21:51,0.01,0.03,0.00,24.05,27.55,29.90,4.72,25.78,1019.84,2039.00,3409.07,3262.02,3559.03,349.57,347.43,5.02,0000 0000 0000 0000 000000
2015-08-01 04:26:52,0.00,0.03,0.00,24.05,27.55,29.90,4.90,25.91,1019.72,2039.00,3409.00,3262.01,3559.00,350.41,348.01,5.04,0000 0000 0000 0000 000000
2015-08-01 04:31:53,0.00,0.03,0.00,24.05,27.55,29.91,4.78,25.80,1019.66,2039.00,3409.00,3262.00,3559.00,350.31,348.10,5.07,0000 0000 0000 0000 000000
2015-08-01 04:36:55,0.00,0.03,0.00,24.07,27.55,29.91,4.70,25.80,1019.57,2039.00,3409.00,3262.00,3558.99,349.67,347.04,5.10,0000 0000 0000 0000 000000
2015-08-01 04:41:56,0.00,0.03,0.00,24.07,27.55,29.92,4.63,25.85,1019.56,2039.00,3408.97,3261.99,3558.97,349.23,346.83,5.13,0000 0000 0000 0000 000000
2015-08-01 04:46:57,0.00,0.03,0.00,24.08,27.57,29.93,4.68,25.83,1019.56,2039.00,3408.91,3261.98,3558.96,349.43,346.99,5.16,0000 0000 0000 0000 000000
2015-08-01 04:51:58,0.03,0.03,0.00,24.09,27.57,29.94,4.80,25.78,1019.56,2039.00,3408.61,3261.92,3558.75,349.77,347.19,5.19,0000 0000 0000 0000 000000
2015-08-01 04:56:59,0.02,0.03,0.00,24.09,27.57,29.93,4.81,25.82,1019.56,2039.00,3408.11,3261.71,3558.20,350.14,347.32,5.22,0000 0000 0000 0000 000000
2015-08-01 05:02:01,0.02,0.03,0.00,24.09,27.57,29.93,4.73,25.80,1019.55,2039.00,3408.01,3261.38,3558.05,349.89,347.13,5.25,0000 0000 0000 0000 000000
2015-08-01 05:07:02,0.01,0.03,0.00,24.09,27.57,29.94,4.75,25.83,1019.55,2039.00,3408.00,3261.05,3558.00,350.22,347.63,5.28,0000 0000 0000 0000 000000
2015-08-01 05:12:03,0.00,0.03,0.00,24.11,27.58,29.95,4.74,25.76,1019.55,2039.00,3408.00,3261.06,3558.00,349.89,347.38,5.31,0000 0000 0000 0000 000000
2015-08-01 05:17:04,0.00,0.03,0.00,24.11,27.59,29.95,4.66,25.74,1019.54,2039.00,3407.97,3261.02,3557.99,349.73,347.12,5.34,0000 0000 0000 0000 000000
2015-08-01 05:22:06,0.00,0.03,0.00,24.10,27.60,29.95,4.80,25.82,1019.50,2038.99,3407.73,3261.00,3557.97,350.69,347.76,5.37,0000 0000 0000 0000 000000
2015-08-01 05:27:07,0.00,0.03,0.00,24.11,27.60,29.96,4.76,25.93,1019.41,2038.99,3407.66,3261.00,3557.97,350.12,347.51,5.40,0000 0000 0000 0000 000000
2015-08-01 05:32:08,0.10,0.04,0.00,24.13,27.60,29.96,4.71,26.03,1019.43,2038.98,3406.52,3260.46,3557.36,349.52,346.92,5.43,0000 0000 0000 0000 000000
2015-08-01 05:37:10,0.01,0.04,0.00,24.13,27.60,29.97,4.74,26.02,1019.42,2038.99,3405.99,3260.02,3557.00,349.63,346.96,5.45,0000 0000 0000 0000 000000
2015-08-01 05:42:11,0.00,0.04,0.00,24.15,27.60,29.97,4.68,26.02,1019.32,2038.98,3405.98,3260.01,3556.97,350.01,347.26,5.48,0000 0000 0000 0000 000000
2015-08-01 05:47:13,0.00,0.04,0.00,24.15,27.61,29.97,4.70,25.79,1019.16,2038.99,3405.93,3260.00,3556.95,349.63,347.06,5.51,0000 0000 0000 0000 000000
2015-08-01 05:52:14,0.01,0.04,0.00,24.15,27.62,29.97,4.77,25.88,1019.07,2038.99,3405.71,3260.00,3556.83,350.39,347.66,5.54,0000 0000 0000 0000 000000
2015-08-01 05:57:15,0.02,0.04,0.00,24.16,27.62,29.99,4.73,25.87,1019.06,2038.98,3405.17,3260.00,3556.50,350.00,347.05,5.57,0000 0000 0000 0000 000000
2015-08-01 06:02:16,0.01,0.04,0.00,24.16,27.62,30.00,4.66,25.84,1019.07,2038.98,3405.04,3259.99,3556.18,349.66,346.76,5.60,0000 0000 0000 0000 000000
2015-08-01 06:07:18,0.00,0.04,0.00,24.16,27.62,30.00,4.72,25.81,1019.06,2038.99,3405.01,3259.97,3556.03,349.67,346.73,5.63,0000 0000 0000 0000 000000
2015-08-01 06:12:19,0.01,0.04,0.00,24.16,27.63,30.00,4.80,25.90,1019.06,2038.98,3405.00,3259.87,3556.01,349.88,346.74,5.66,0000 0000 0000 0000 000000
2015-08-01 06:17:20,0.01,0.04,0.00,24.17,27.64,30.00,4.75,25.82,1019.00,2038.95,3404.99,3259.50,3556.00,349.85,347.13,5.69,0000 0000 0000 0000 000000
2015-08-01 06:22:21,0.01,0.04,0.00,24.17,27.65,30.01,4.62,25.92,1019.01,2038.97,3404.99,3259.31,3556.00,350.18,347.25,5.72,0000 0000 0000 0000 000000
2015-08-01 06:27:22,0.01,0.04,0.00,24.17,27.65,30.00,4.87,25.88,1019.04,2038.97,3404.96,3259.13,3555.99,351.07,348.14,5.75,0000 0000 0000 0000 000000
2015-08-01 06:32:23,0.01,0.04,0.00,24.18,27.65,30.01,4.84,25.90,1019.02,2038.95,3404.61,3259.04,3555.96,350.84,347.96,5.78,0000 0000 0000 0000 000000
2015-08-01 06:37:24,0.01,0.04,0.00,24.19,27.65,30.02,4.72,25.75,1018.97,2038.96,3404.39,3259.02,3555.91,349.62,346.77,5.81,0000 0000 0000 0000 000000
2015-08-01 06:42:26,-0.00,0.04,0.00,24.18,27.67,30.03,4.81,25.83,1018.92,2038.87,3404.03,3259.00,3555.41,350.01,347.22,5.84,0000 0000 0000 0000 000000
2015-08-01 06:47:27,-0.02,0.04,0.00,24.19,27.67,30.04,4.67,25.77,1018.95,2038.68,3403.99,3258.98,3555.03,349.44,346.52,5.87,0000 0000 0000 0000 000000
2015-08-01 06:52:28,0.02,0.04,0.00,24.20,27.67,30.04,4.76,25.72,1018.98,2038.71,3403.99,3258.98,3555.01,349.92,346.98,5.89,0000 0000 0000 0000 000000
2015-08-01 06:57:29,0.00,0.04,0.00,24.22,27.67,30.04,4.75,25.74,1019.01,2038.67,3403.99,3258.97,3555.00,350.40,347.42,5.92,0000 0000 0000 0000 000000
2015-08-01 07:02:31,-0.04,0.04,0.00,24.22,27.68,30.05,4.69,25.73,1018.90,2038.53,3403.93,3258.92,3555.00,349.49,346.55,5.95,0000 0000 0000 0000 000000
2015-08-01 07:07:32,0.01,0.04,0.00,24.22,27.69,30.05,4.79,25.71,1018.63,2038.36,3403.68,3258.55,3554.98,350.20,347.17,5.98,0000 0000 0000 0000 000000
2015-08-01 07:12:33,0.03,0.04,0.00,24.23,27.70,30.05,4.65,25.69,1018.59,2038.53,3403.66,3258.53,3554.98,349.85,346.88,6.01,0000 0000 0000 0000 000000
2015-08-01 07:17:34,-0.02,0.04,0.00,24.24,27.70,30.06,4.77,25.64,1018.59,2038.40,3403.34,3258.29,3554.96,350.12,347.07,6.04,0000 0000 0000 0000 000000
2015-08-01 07:22:36,0.01,0.04,0.00,24.25,27.70,30.06,4.85,25.79,1018.59,2038.33,3403.09,3258.09,3554.91,350.31,347.36,6.07,0000 0000 0000 0000 000000
2015-08-01 07:27:37,0.03,0.04,0.00,24.23,27.70,30.07,4.80,25.71,1018.58,2038.47,3403.04,3258.08,3554.87,350.42,347.39,6.10,0000 0000 0000 0000 000000
2015-08-01 07:32:38,-0.02,0.04,0.00,24.23,27.72,30.08,4.80,25.63,1018.58,2038.50,3403.01,3258.05,3554.67,350.43,347.38,6.13,0000 0000 0000 0000 000000
2015-08-01 07:37:39,-0.01,0.04,0.00,24.25,27.72,30.08,4.72,25.65,1018.57,2038.24,3403.00,3258.00,3554.09,349.87,346.84,6.16,0000 0000 0000 0000 000000
2015-08-01 07:42:40,-0.01,0.04,0.00,24.26,27.72,30.09,4.76,25.71,1018.57,2038.10,3402.97,3258.00,3554.03,349.55,346.80,6.19,0000 0000 0000 0000 000000
2015-08-01 07:47:41,-0.00,0.04,0.00,24.27,27.72,30.09,4.71,25.61,1018.57,2038.06,3402.88,3257.99,3554.00,349.47,346.41,6.22,0000 0000 0000 0000 000000
2015-08-01 07:52:43,0.02,0.04,0.00,24.26,27.73,30.09,4.71,25.69,1018.57,2038.13,3402.64,3257.97,3554.00,349.96,346.87,6.25,0000 0000 0000 0000 000000
2015-08-01 07:57:44,0.00,0.04,0.00,24.27,27.75,30.11,4.78,25.72,1018.57,2038.07,3402.11,3257.95,3553.99,350.64,347.68,6.27,0000 0000 0000 0000 000000
2015-08-01 08:02:45,0.02,0.04,0.00,24.27,27.75,30.11,4.75,25.83,1018.57,2038.02,3402.01,3257.61,3553.84,350.21,346.94,6.30,0000 0000 0000 0000 000000
2015-08-01 08:07:46,0.04,0.04,0.00,24.25,27.75,30.11,4.74,25.73,1018.57,2038.05,3402.00,3257.08,3553.25,350.31,347.17,6.33,0000 0000 0000 0000 000000
2015-08-01 08:12:47,-0.00,0.04,0.00,24.27,27.75,30.11,4.76,25.70,1018.57,2038.02,3401.96,3257.02,3553.08,349.29,346.23,6.36,0000 0000 0000 0000 000000
2015-08-01 08:17:48,0.01,0.04,0.00,24.27,27.76,30.12,4.74,25.72,1018.57,2038.02,3401.68,3257.01,3553.02,349.70,346.72,6.39,0000 0000 0000 0000 000000
2015-08-01 08:22:49,0.02,0.04,0.00,24.27,27.77,30.12,4.78,25.68,1018.57,2038.04,3401.25,3257.00,3553.00,350.05,346.86,6.42,0000 0000 0000 0000 000000
2015-08-01 08:27:51,0.00,0.04,0.00,24.29,27.77,30.13,4.69,25.68,1018.57,2038.04,3401.03,3257.00,3553.00,349.98,347.02,6.45,0000 0000 0000 0000 000000
2015-08-01 08:32:52,-0.00,0.04,0.00,24.30,27.77,30.15,4.82,25.67,1018.57,2038.02,3401.00,3256.97,3552.98,350.41,347.33,6.48,0000 0000 0000 0000 000000
2015-08-01 08:37:53,0.01,0.04,0.00,24.30,27.77,30.14,4.84,25.72,1018.58,2038.00,3400.98,3256.89,3552.82,350.39,347.36,6.51,0000 0000 0000 0000 000000
2015-08-01 08:42:54,0.03,0.04,0.00,24.31,27.78,30.14,4.77,25.66,1018.58,2038.00,3400.90,3256.34,3552.24,350.40,347.22,6.54,0000 0000 0000 0000 000000
2015-08-01 08:47:55,0.03,0.04,0.00,24.30,27.79,30.15,4.70,25.65,1018.59,2038.00,3400.37,3256.10,3552.07,349.77,346.52,6.57,0000 0000 0000 0000 000000
2015-08-01 08:52:57,0.00,0.05,0.00,24.30,27.80,30.15,4.73,25.62,1018.59,2038.00,3400.13,3256.04,3552.03,350.28,347.14,6.60,0000 0000 0000 0000 000000
2015-08-01 08:57:58,0.00,0.05,0.00,24.30,27.80,30.16,4.71,25.60,1018.58,2038.00,3400.01,3256.00,3552.01,349.78,346.57,6.63,0000 0000 0000 0000 000000
2015-08-01 09:02:59,0.00,0.05,0.00,24.29,27.80,30.17,4.79,25.83,1018.57,2038.00,3399.94,3256.00,3551.99,350.02,346.89,6.66,0000 0000 0000 0000 000000
2015-08-01 09:08:00,0.00,0.05,0.00,24.30,27.80,30.16,4.71,25.64,1018.57,2038.00,3399.80,3255.99,3551.97,349.77,346.47,6.68,0000 0000 0000 0000 000000
2015-08-01 09:13:01,0.02,0.05,0.00,24.31,27.81,30.17,4.75,25.67,1018.57,2038.00,3399.38,3255.96,3551.85,350.24,346.98,6.71,0000 0000 0000 0000 000000
2015-08-01 09:18:03,0.03,0.05,0.00,24.31,27.82,30.17,4.78,25.68,1018.57,2038.00,3399.07,3255.79,3551.33,349.98,346.75,6.74,0000 0000 0000 0000 000000
2015-08-01 09:23:04,0.07,0.05,0.00,24.30,27.82,30.17,4.69,25.63,1018.56,2038.00,3398.21,3255.07,3550.47,349.64,346.38,6.77,0000 0000 0000 0000 000000
2015-08-01 09:28:06,0.00,0.05,0.00,24.30,27.82,30.18,4.80,25.63,1018.56,2038.00,3397.99,3254.93,3550.08,350.26,347.00,6.80,0000 0000 0000 0000 000000
2015-08-01 09:33:07,-0.00,0.05,0.00,24.32,27.82,30.19,4.69,25.62,1018.53,2037.99,3397.98,3254.88,3550.03,349.67,346.46,6.83,0000 0000 0000 0000 000000
2015-08-01 09:38:08,0.01,0.05,0.00,24.33,27.82,30.18,4.56,25.60,1018.44,2037.98,3397.93,3254.74,3550.01,349.00,345.69,6.86,0000 0000 0000 0000 000000
2015-08-01 09:43:10,0.03,0.05,0.00,24.33,27.83,30.19,4.67,25.63,1018.25,2037.99,3397.58,3254.31,3550.00,349.15,345.98,6.89,0000 0000 0000 0000 000000
2015-08-01 09:48:11,0.01,0.05,0.00,24.32,27.84,30.20,4.75,25.73,1018.17,2037.99,3397.15,3254.10,3550.00,350.03,346.31,6.92,0000 0000 0000 0000 000000
2015-08-01 09:53:12,0.01,0.05,0.00,24.33,27.85,30.20,4.82,25.72,1018.16,2037.97,3396.90,3254.01,3549.81,350.55,347.30,6.95,0000 0000 0000 0000 000000
2015-08-01 09:58:13,0.03,0.05,0.00,24.33,27.85,30.19,4.66,25.53,1018.16,2037.96,3396.25,3253.98,3549.08,350.11,346.81,6.98,0000 0000 0000 0000 000000
2015-08-01 10:03:14,0.01,0.05,0.00,24.32,27.85,30.20,4.81,25.92,1018.10,2037.95,3396.02,3253.82,3549.01,350.33,346.82,7.01,0000 0000 0000 0000 000000
2015-08-01 10:08:16,0.01,0.05,0.00,24.32,27.85,30.20,4.83,25.69,1018.09,2037.95,3396.00,3253.71,3549.00,350.19,347.07,7.04,0000 0000 0000 0000 000000
2015-08-01 10:13:17,0.02,0.05,0.00,24.33,27.85,30.21,4.67,25.64,1018.09,2037.95,3396.00,3253.26,3548.99,349.81,346.36,7.07,0000 0000 0000 0000 000000
2015-08-01 10:18:18,-0.00,0.05,0.00,24.34,27.85,30.21,4.78,25.65,1018.08,2037.93,3395.99,3253.07,3548.98,350.37,346.78,7.10,0000 0000 0000 0000 000000
2015-08-01 10:23:19,0.00,0.05,0.00,24.35,27.86,30.21,4.71,25.64,1018.08,2037.92,3395.94,3253.04,3548.97,349.82,346.59,7.12,0000 0000 0000 0000 000000
2015-08-01 10:28:20,0.00,0.05,0.00,24.35,27.87,30.23,4.76,25.67,1018.08,2037.91,3395.83,3253.01,3548.91,350.16,346.57,7.15,0000 0000 0000 0000 000000
2015-08-01 10:33:22,0.03,0.05,0.00,24.35,27.87,30.23,4.86,25.63,1018.07,2037.96,3395.37,3253.00,3548.67,350.37,347.00,7.18,0000 0000 0000 0000 000000
2015-08-01 10:38:23,0.01,0.06,0.00,24.37,27.87,30.22,4.74,25.67,1018.00,2037.93,3395.07,3253.00,3548.31,350.29,346.71,7.21,0000 0000 0000 0000 000000
2015-08-01 10:43:24,-0.00,0.06,0.00,24.37,27.87,30.23,4.79,25.72,1017.79,2037.90,3395.02,3252.99,3548.04,349.68,346.35,7.24,0000 0000 0000 0000 000000
2015-08-01 10:48:25,0.00,0.06,0.00,24.37,27.87,30.24,4.80,25.72,1017.73,2037.92,3395.00,3252.99,3548.05,350.22,346.72,7.27,0000 0000 0000 0000 000000
2015-08-01 10:53:26,-0.00,0.06,0.00,24.35,27.88,30.24,4.74,25.73,1017.62,2037.87,3395.00,3252.96,3548.00,350.09,346.48,7.30,0000 0000 0000 0000 000000
2015-08-01 10:58:28,-0.01,0.06,0.00,24.36,27.89,30.25,4.73,25.70,1017.61,2037.82,3394.99,3252.92,3548.00,349.79,346.23,7.33,0000 0000 0000 0000 000000
2015-08-01 11:03:29,-0.01,0.05,0.00,24.36,27.90,30.25,4.77,25.89,1017.60,2037.68,3394.78,3252.69,3548.00,349.88,346.31,7.36,0000 0000 0000 0000 000000
2015-08-01 11:08:31,0.05,0.06,0.00,24.36,27.90,30.26,4.83,25.72,1017.59,2037.85,3394.72,3252.46,3547.99,350.35,346.65,7.39,0000 0000 0000 0000 000000
2015-08-01 11:13:32,0.02,0.06,0.00,24.35,27.90,30.25,4.77,25.67,1017.60,2037.81,3394.22,3252.12,3547.96,349.90,346.35,7.42,0000 0000 0000 0000 000000
2015-08-01 11:18:33,0.00,0.06,0.00,24.35,27.90,30.25,4.80,25.70,1017.59,2037.73,3394.04,3252.02,3547.77,349.63,345.97,7.45,0000 0000 0000 0000 000000
2015-08-01 11:23:34,-0.04,0.06,0.00,24.37,27.90,30.26,4.67,25.69,1017.59,2037.48,3394.00,3252.00,3547.28,349.85,346.21,7.48,0000 0000 0000 0000 000000
2015-08-01 11:28:35,0.04,0.06,0.00,24.37,27.90,30.27,4.73,25.65,1017.58,2037.60,3394.00,3252.00,3547.07,350.21,346.55,7.51,0000 0000 0000 0000 000000
2015-08-01 11:33:37,-0.02,0.06,0.00,24.37,27.90,30.27,4.79,25.66,1017.55,2037.52,3393.98,3252.00,3547.02,349.78,346.12,7.53,0000 0000 0000 0000 000000
2015-08-01 11:38:38,0.02,0.06,0.00,24.38,27.90,30.27,4.69,25.63,1017.51,2037.54,3393.98,3252.00,3547.01,349.77,346.16,7.56,0000 0000 0000 0000 000000
2015-08-01 11:43:40,0.01,0.06,0.00,24.37,27.91,30.28,4.71,25.68,1017.36,2037.58,3393.88,3251.98,3547.00,349.89,346.32,7.59,0000 0000 0000 0000 000000
2015-08-01 11:48:41,0.01,0.06,0.00,24.37,27.92,30.27,4.74,25.73,1017.28,2037.62,3393.64,3251.99,3547.00,350.12,346.15,7.62,0000 0000 0000 0000 000000
2015-08-01 11:53:42,0.01,0.06,0.00,24.37,27.92,30.27,4.72,25.74,1017.19,2037.57,3393.27,3251.96,3547.00,350.39,346.63,7.65,0000 0000 0000 0000 000000
2015-08-01 11:58:44,-0.02,0.06,0.00,24.37,27.92,30.28,4.79,25.58,1017.17,2037.37,3393.05,3251.92,3546.98,350.36,346.41,7.68,0000 0000 0000 0000 000000
2015-08-01 12:03:45,0.02,0.06,0.00,24.37,27.92,30.27,4.71,25.82,1017.14,2037.40,3393.01,3251.72,3546.91,349.84,346.24,7.71,0000 0000 0000 0000 000000
2015-08-01 12:08:46,0.01,0.06,0.00,24.37,27.92,30.26,4.78,25.73,1017.13,2037.27,3393.00,3251.21,3546.69,350.54,346.96,7.74,0000 0000 0000 0000 000000
2015-08-01 12:13:47,-0.01,0.06,0.00,24.36,27.92,30.28,4.73,25.73,1017.12,2037.19,3392.98,3251.09,3546.27,350.15,346.42,7.77,0000 0000 0000 0000 000000
2015-08-01 12:18:48,0.05,0.06,0.00,24.35,27.92,30.28,4.71,25.63,1017.11,2037.27,3392.97,3251.02,3546.07,349.54,345.80,7.80,0000 0000 0000 0000 000000
2015-08-01 12:23:49,-0.03,0.06,0.00,24.36,27.92,30.29,4.79,25.70,1017.11,2037.17,3392.87,3251.01,3546.04,350.09,346.43,7.83,0000 0000 0000 0000 000000
2015-08-01 12:28:51,0.00,0.06,0.00,24.37,27.92,30.28,4.85,25.66,1017.10,2037.11,3392.50,3251.00,3546.01,349.93,346.28,7.86,0000 0000 0000 0000 000000
2015-08-01 12:33:52,0.01,0.06,0.00,24.38,27.93,30.28,4.79,25.60,1017.06,2037.15,3392.17,3251.00,3546.00,349.97,346.24,7.89,0000 0000 0000 0000 000000
2015-08-01 12:38:54,-0.00,0.06,0.00,24.38,27.93,30.27,4.67,25.60,1016.92,2037.09,3392.03,3251.00,3545.99,349.38,345.40,7.92,0000 0000 0000 0000 000000
2015-08-01 12:43:55,0.02,0.06,0.00,24.37,27.94,30.27,4.71,25.67,1016.76,2037.16,3392.00,3250.98,3545.98,349.81,345.76,7.94,0000 0000 0000 0000 000000
2015-08-01 12:48:56,-0.01,0.06,0.00,24.37,27.94,30.29,4.59,25.64,1016.78,2037.11,3392.00,3250.96,3545.93,349.38,345.71,7.97,0000 0000 0000 0000 000000
2015-08-01 12:53:58,0.02,0.06,0.00,24.36,27.95,30.29,4.63,25.61,1016.83,2037.11,3391.95,3250.84,3545.71,349.64,345.83,8.00,0000 0000 0000 0000 000000
2015-08-01 12:58:59,0.04,0.06,0.00,24.37,27.95,30.29,4.64,25.63,1016.68,2037.06,3391.60,3250.42,3545.12,349.72,345.89,8.03,0000 0000 0000 0000 000000
2015-08-01 13:04:00,0.02,0.06,0.00,24.37,27.95,30.30,4.77,25.82,1016.66,2037.04,3391.07,3250.13,3545.00,350.45,346.54,8.06,0000 0000 0000 0000 000000